Simultaneous Nadir Overpasses (SNOs) Predictions

Prediction of SNOs between GOES-17 and METOP-B Satellite Orbit:

Table of predicted SNOs for the next 14.0 days since TLE Epoch: 8/12/2023
Index Date Time (GOES-17) GOES-17 Lat,Lon METOP-B Lat,Lon Distance(km) Time Diff (sec)
1 08/12/2023 04:23:59 0.00,-104.69 0.12,-104.11 66.58 80
2 08/13/2023 16:42:50 -0.00,-104.72 0.88,-108.67 450.61 80
3 08/14/2023 16:24:50 0.00,-104.72 -0.25,-103.68 118.61 80
4 08/16/2023 04:43:50 -0.00,-104.70 -0.79,-108.28 407.99 80
5 08/17/2023 04:20:29 -0.01,-104.69 0.29,-103.28 161.20 80
6 08/18/2023 16:39:21 0.01,-104.72 0.70,-107.84 355.60 80
7 08/19/2023 16:21:20 0.01,-104.73 -0.39,-102.84 214.02 80
8 08/21/2023 04:40:19 -0.01,-104.71 -0.64,-107.44 311.96 80
9 08/22/2023 04:17:00 -0.01,-104.71 0.50,-102.45 257.27 80
10 08/23/2023 16:35:50 0.01,-104.73 0.54,-107.01 260.14 80
11 08/24/2023 16:17:51 0.01,-104.73 -0.61,-102.02 309.10 80
